ATLAS 5 CENTAUR DEB, 55859

Orbit data source: Space-Track

ATLAS 5 CENTAUR DEB, 55859 is space debris in HEO originally from a launch on Wed, 17 Oct 2018 UTC launched from the Air Force Eastern Test Range (AFETR). Debris objects in space refer to the collection of defunct objects orbiting the Earth. Examples of debris include non-operational satellites, rocket bodies, and fragments generated from explosions, collisions, or faulty payload assembly.

Loading next visibility...
Identifier
55859, 2018-079HM
Orbit
HEO
Country
Flag of USUS
Related business
Flag of USUnited Launch Alliance/Lockheed Martin (US)
Manufacturer
ULA Decatur
Mission
Spacecraft
Bus & Motor
Unknown
Mass
Unknown
Launch date (UTC)
2018-10-17 (8 years ago)
Launch vehicle
Unknown
Launch site
Air Force Eastern Test Range (AFETR)
Object type
Payload
Rocket body
Debris
Shape & HBR
Unknown shape, 1.1 m
Radar Cross Section
RCS unknown

Expand to show TLE details & history
Last TLE update: 6 days ago

TLE from 6 days ago
0 ATLAS 5 CENTAUR DEB
1 55859U 18079HM  26230.34835455 -.00000159  00000-0  00000-0 0  9993
2 55859  13.3812  28.3659 4643069 329.9673   9.9153  1.82852345 32264
Epoch: 2026-08-18T08:21Z
TLE epoch observation values (Epoch: 2026-08-18T08:21:37.833Z)
Latitude
-0.00001°
Longitude
-63.72495°
Altitude
9,420.64 km
Speed
6.029 km/s
True Right ascension
01h 53m 36s
True Declination
0° 00' 00"
Sunlit
Object was in daylight at epoch
Visualization orbit readout
Latitude
Unknown
Longitude
Unknown
Altitude
Unknown
Speed
Unknown
Apparent Right ascension
Unknown
Apparent Declination
Unknown
Sunlit
N/A
Visualization observer readout
Local Sidereal Time
16:20:42
Azimuth
Unknown
Elevation
Unknown
Doppler factor
Unknown
Orbital elements
Apogee altitude
34,989.964 km
Perigee altitude
8,755.717 km
Semi-major axis
28,250.978 km
Eccentricity
0.46431
Inclination
13.3812°
RAAN
28.3659°
Arg. of periapsis
329.9673°
True anomaly
29.734°
Mean anomaly
9.9153°
Eccentric anomaly
18.24346°
Mean motion
0.45708 °/min
Orbital period
787.61 mins
BSTAR
0
Loading maneuver chart data...
Computing Atmospheric mass density...

Documentation

Showing up to 5 results
|